Weather History for KTWF - April, 2014

Change the Weather History Date:

Tuesday, April 22, 2014

  Actual Average Record
Temperature  
Mean Temperature 48 °F -  
Max Temperature 60 °F 62 °F 88 °F (2012)
Min Temperature 35 °F 36 °F 22 °F (1982)
Degree Days  
Heating Degree Days 17 16  
Month to date heating degree days 320 394  
Since 1 July heating degree days 5179 5683  
Cooling Degree Days 0 0  
Month to date cooling degree days 0 0  
Year to date cooling degree days 0 0  
Moisture  
Dew Point 35 °F    
Average Humidity 59    
Maximum Humidity 82    
Minimum Humidity 35    
Precipitation  
Precipitation 0.20 in 0.03 in 0.48 in (2007)
Month to date precipitation 0.39 0.80  
Year to date precipitation 4.52 3.63  
Sea Level Pressure  
Sea Level Pressure 29.70 in    
Wind  
Wind Speed 17 mph (SW)    
Max Wind Speed 41 mph    
Max Gust Speed 48 mph    
Visibility 9 miles    
Events Rain    
T = Trace of Precipitation, MM = Missing Value Source: NWS Daily Summary

Daily Weather History Graph

Daily Weather History Graph

Search for Another Location

Airport or City:

Trip Planner

Search our weather history database for the weather conditions in past years. The results will help you decide how hot, cold, wet, or windy it might be!

Date:

Astronomy

Apr. 22, 2014 Rise Set
Actual Time 6:45 AM MDT 8:27 PM MDT
Civil Twilight 6:15 AM MDT 8:57 PM MDT
Nautical Twilight 5:39 AM MDT 9:34 PM MDT
Astronomical Twilight 5:00 AM MDT 10:13 PM MDT
Moon 2:46 AM MDT (4/22) 1:25 PM MDT (4/22)
Length of Visible Light 14h 41m
Length of Day
13h 42m
Last Quarter, 45% of the Moon is Illuminated
Apr 22
Last Quarter
Apr 29
New
May 6
First Quarter
May 14
Full
May 21
Last Quarter

Hourly Weather History & Observations

Time (MDT) Temp. Windchill Dew Point Humidity Pressure Visibility Wind Dir Wind Speed Gust Speed Precip Events Conditions
12:53 AM 59.0 °F - 34.0 °F 39% 29.73 in 10.0 mi SSW 9.2 mph - N/A   Clear
1:53 AM 53.1 °F - 34.0 °F 48% 29.70 in 10.0 mi SSE 8.1 mph - N/A   Clear
2:53 AM 53.1 °F - 34.0 °F 48% 29.66 in 10.0 mi ESE 9.2 mph - N/A   Clear
3:53 AM 55.9 °F - 33.1 °F 42% 29.64 in 10.0 mi WNW 9.2 mph - N/A   Mostly Cloudy
4:53 AM 55.9 °F - 34.0 °F 44% 29.63 in 10.0 mi South 6.9 mph - N/A   Mostly Cloudy
5:53 AM 51.1 °F - 36.0 °F 56% 29.60 in 10.0 mi SSE 6.9 mph - N/A   Partly Cloudy
6:53 AM 52.0 °F - 36.0 °F 54% 29.58 in 10.0 mi South 5.8 mph - N/A   Mostly Cloudy
7:53 AM 52.0 °F - 35.1 °F 53% 29.60 in 10.0 mi SSW 3.5 mph - N/A   Overcast
8:53 AM 55.9 °F - 28.9 °F 36% 29.59 in 10.0 mi West 18.4 mph 26.5 mph N/A   Mostly Cloudy
9:53 AM 57.9 °F - 32.0 °F 37% 29.57 in 10.0 mi West 21.9 mph 29.9 mph N/A   Clear
10:53 AM 59.0 °F - 32.0 °F 36% 29.57 in 10.0 mi West 23.0 mph 29.9 mph N/A   Clear
11:53 AM 60.1 °F - 34.0 °F 38% 29.56 in 10.0 mi West 27.6 mph - N/A   Partly Cloudy
12:53 PM 51.1 °F - 37.0 °F 59% 29.61 in 7.0 mi West 39.1 mph 48.3 mph N/A   Overcast
1:18 PM 48.9 °F - 36.0 °F 61% 29.71 in 10.0 mi West 33.4 mph 41.4 mph N/A   Overcast
1:53 PM 46.9 °F - 37.0 °F 68% 29.64 in 10.0 mi West 27.6 mph 40.3 mph 0.00 in Rain Light Rain
2:53 PM 45.0 °F 36.0 °F 37.9 °F 76% 29.67 in 7.0 mi West 25.3 mph 31.1 mph 0.01 in Rain Light Rain
3:53 PM 44.1 °F 36.2 °F 37.9 °F 79% 29.66 in 8.0 mi SW 18.4 mph - 0.05 in Rain Light Rain
4:13 PM 44.1 °F 36.5 °F 37.0 °F 76% 29.73 in 10.0 mi SSW 17.3 mph - 0.00 in Rain Light Rain
4:53 PM 43.0 °F 36.0 °F 37.0 °F 80% 29.67 in 7.0 mi SW 13.8 mph - 0.01 in Rain Light Rain
5:05 PM 43.0 °F 35.1 °F 37.0 °F 80% 29.75 in 7.0 mi SW 17.3 mph 25.3 mph 0.01 in Rain Light Rain
5:21 PM 43.0 °F 34.5 °F 37.0 °F 80% 29.75 in 9.0 mi SW 19.6 mph - 0.01 in Rain Light Rain
5:53 PM 43.0 °F 35.7 °F 36.0 °F 76% 29.70 in 9.0 mi SW 15.0 mph - 0.02 in Rain Light Rain
6:19 PM 43.0 °F 35.7 °F 37.0 °F 80% 29.76 in 6.0 mi SSW 15.0 mph - 0.01 in Rain Light Rain
6:41 PM 43.0 °F 35.4 °F 37.0 °F 80% 29.76 in 10.0 mi South 16.1 mph - 0.02 in   Overcast
6:53 PM 43.0 °F 36.0 °F 37.0 °F 80% 29.69 in 10.0 mi SSW 13.8 mph - 0.02 in   Overcast
7:53 PM 43.0 °F 36.0 °F 36.0 °F 76% 29.69 in 10.0 mi SSW 13.8 mph - N/A   Overcast
8:21 PM 37.0 °F 25.4 °F 32.0 °F 82% 29.79 in 1.8 mi WSW 25.3 mph 39.1 mph 0.04 in Rain Heavy Rain
8:27 PM 35.1 °F 23.8 °F 30.9 °F 85% 29.80 in 1.5 mi WSW 20.7 mph 31.1 mph 0.07 in Rain Heavy Rain
8:32 PM 36.0 °F 26.0 °F 32.0 °F 86% 29.81 in 3.0 mi WSW 17.3 mph 31.1 mph 0.08 in Rain Rain
8:53 PM 37.0 °F 27.4 °F 33.1 °F 86% 29.74 in 10.0 mi WSW 17.3 mph - 0.09 in Rain Light Rain
9:07 PM 37.9 °F 29.2 °F 33.1 °F 83% 29.81 in 10.0 mi SW 15.0 mph - 0.00 in Rain Light Rain
9:50 PM 39.2 °F 28.7 °F 33.8 °F 81% 29.84 in 10.0 mi WSW 23.0 mph 29.9 mph 0.00 in   Overcast
9:53 PM 39.9 °F 29.5 °F 34.0 °F 79% 29.76 in 10.0 mi SW 24.2 mph 31.1 mph 0.00 in   Overcast
10:02 PM 39.9 °F 30.5 °F 34.0 °F 79% 29.83 in 10.0 mi SW 19.6 mph 31.1 mph N/A   Overcast
10:53 PM 39.9 °F 29.7 °F 32.0 °F 73% 29.77 in 10.0 mi WSW 23.0 mph 32.2 mph N/A   Mostly Cloudy
11:53 PM 39.0 °F 28.8 °F 33.1 °F 79% 29.80 in 10.0 mi SW 21.9 mph - N/A   Clear